Location: Sungai Liu
(2.3667°N, 113.8667°E)
Time: 13:11:04
(UTC+00:00)

Cosmos 1825 - Pass Details

Date: 20 May 2022
Orbit: 496 x 499 km, 82.5° (Epoch: 05 July)

Event Time Altitude Azimuth Distance (km) Brightness Sun altitude
Exits shadow 21:03:14 40° 258° (WSW) 735 2.4 -17.4°
Maximum altitude 21:03:34 42° 274° (W) 720 2.5 -17.3°
Drops below altitude 10° 21:07:04 10° 346° (NNW) 1,685 4.9 -16.5°
Sets 21:09:15 0° 353° (N) 2,564 5.9 -16.0°
